THY81K FMMI-FIMP

Flight info

Callsign THY81K
Flight time N/A
Altitude 39000
Route PIPRI1E TE UA400 RASMA RASMA2E
Aircraft B77W/H-SDE1E2E3FGHIJ2J3J4J5M1RWXY/LB1D1

Departure

Time N/A
Airport Ivato International Airport (FMMI)

Arrival

Time 2026-05-05 14:26
Airport Sir Seewoosagur Ramgoolam International Airport (FIMP)
Time Latitude Longitude Altitude Speed Heading
2026-05-05 14:16 -20.19956 57.15606 9523 ft 286 kts 90°
2026-05-05 14:16 -20.19949 57.17719 9231 ft 283 kts 90°
2026-05-05 14:16 -20.19941 57.19807 8905 ft 281 kts 90°
2026-05-05 14:16 -20.19933 57.21863 8593 ft 280 kts 90°
2026-05-05 14:17 -20.19925 57.23927 8285 ft 278 kts 90°
2026-05-05 14:17 -20.19917 57.25978 7961 ft 276 kts 90°
2026-05-05 14:17 -20.20172 57.27956 7650 ft 269 kts 110°
2026-05-05 14:17 -20.21105 57.29669 7375 ft 267 kts 124°
2026-05-05 14:18 -20.22193 57.31266 7068 ft 265 kts 124°
2026-05-05 14:18 -20.23268 57.32863 6775 ft 264 kts 123°
2026-05-05 14:18 -20.24329 57.34449 6474 ft 263 kts 123°
2026-05-05 14:18 -20.25388 57.36037 6182 ft 261 kts 123°
2026-05-05 14:19 -20.26407 57.37568 6050 ft 252 kts 123°
2026-05-05 14:19 -20.27407 57.39070 5927 ft 244 kts 123°
2026-05-05 14:19 -20.28380 57.40519 5799 ft 235 kts 123°
2026-05-05 14:19 -20.29313 57.41887 5750 ft 221 kts 124°
2026-05-05 14:20 -20.30206 57.43196 5493 ft 214 kts 124°
2026-05-05 14:20 -20.31051 57.44442 5249 ft 200 kts 124°
2026-05-05 14:20 -20.31840 57.45604 5012 ft 194 kts 123°
2026-05-05 14:20 -20.32622 57.46779 4817 ft 193 kts 118°
2026-05-05 14:21 -20.33258 57.48031 4561 ft 189 kts 114°
2026-05-05 14:21 -20.33829 57.49237 4311 ft 173 kts 114°
2026-05-05 14:21 -20.34351 57.50326 4096 ft 159 kts 114°
2026-05-05 14:21 -20.34853 57.51379 3891 ft 162 kts 114°
2026-05-05 14:22 -20.35364 57.52449 3675 ft 160 kts 114°
2026-05-05 14:22 -20.35868 57.53497 3445 ft 157 kts 115°
2026-05-05 14:22 -20.36370 57.54521 3183 ft 155 kts 115°
2026-05-05 14:22 -20.36845 57.55498 2951 ft 144 kts 115°
2026-05-05 14:23 -20.37292 57.56429 2733 ft 140 kts 115°
2026-05-05 14:23 -20.37729 57.57338 2511 ft 135 kts 116°
2026-05-05 14:23 -20.38155 57.58226 2300 ft 134 kts 117°
2026-05-05 14:23 -20.38587 57.59122 2093 ft 137 kts 118°
2026-05-05 14:24 -20.39022 57.60024 1901 ft 136 kts 115°
2026-05-05 14:24 -20.39448 57.60911 1670 ft 133 kts 115°
2026-05-05 14:24 -20.39881 57.61782 1466 ft 134 kts 115°
2026-05-05 14:24 -20.40299 57.62683 1255 ft 136 kts 114°
2026-05-05 14:25 -20.40721 57.63589 1054 ft 135 kts 115°
2026-05-05 14:25 -20.41161 57.64482 832 ft 139 kts 115°
2026-05-05 14:25 -20.41599 57.65406 654 ft 139 kts 115°
2026-05-05 14:25 -20.42037 57.66308 409 ft 135 kts 115°
2026-05-05 14:26 -20.42473 57.67215 241 ft 140 kts 116°
2026-05-05 14:26 -20.42904 57.68107 204 ft 123 kts 117°
2026-05-05 14:26 -20.43207 57.68736 176 ft 72 kts 117°
2026-05-05 14:26 -20.43385 57.69106 159 ft 27 kts 117°
2026-05-05 14:27 -20.43471 57.69282 144 ft 20 kts 117°
2026-05-05 14:27 -20.43514 57.69362 140 ft 10 kts 137°
2026-05-05 14:27 -20.43576 57.69362 140 ft 9 kts 204°
2026-05-05 14:27 -20.43630 57.69331 147 ft 8 kts 208°
2026-05-05 14:28 -20.43660 57.69291 154 ft 7 kts 261°
2026-05-05 14:28 -20.43647 57.69239 159 ft 7 kts 300°
2026-05-05 14:28 -20.43622 57.69191 162 ft 7 kts 298°
2026-05-05 14:28 -20.43580 57.69104 169 ft 18 kts 297°
2026-05-05 14:29 -20.43524 57.68990 175 ft 17 kts 297°
2026-05-05 14:29 -20.43470 57.68878 177 ft 17 kts 297°
2026-05-05 14:29 -20.43416 57.68766 179 ft 17 kts 297°
2026-05-05 14:29 -20.43363 57.68654 181 ft 17 kts 297°
2026-05-05 14:30 -20.43317 57.68559 183 ft 14 kts 297°
2026-05-05 14:30 -20.43274 57.68471 184 ft 12 kts 297°
2026-05-05 14:30 -20.43236 57.68393 199 ft 12 kts 297°
2026-05-05 14:30 -20.43199 57.68315 201 ft 12 kts 297°
2026-05-05 14:31 -20.43161 57.68237 206 ft 12 kts 297°
2026-05-05 14:31 -20.43127 57.68165 203 ft 9 kts 297°
2026-05-05 14:31 -20.43128 57.68125 206 ft 5 kts 233°
2026-05-05 14:31 -20.43157 57.68103 203 ft 6 kts 210°
2026-05-05 14:32 -20.43188 57.68073 201 ft 7 kts 230°
2026-05-05 14:32 -20.43216 57.68032 193 ft 7 kts 237°
2026-05-05 14:32 -20.43236 57.67997 204 ft 4 kts 238°
2026-05-05 14:32 -20.43250 57.67973 198 ft 3 kts 238°
2026-05-05 14:33 -20.43258 57.67960 203 ft 2 kts 237°
2026-05-05 14:33 -20.43261 57.67956 202 ft 0 kts 237°